JST416 YSSY-YBCG

Flight info

Callsign JST416
Flight time 1h 0m
Altitude 35000
Route OLSEM1/34R OLSEM Y193 BANDA Y43 GREAV DCT GOMOL DCT
Aircraft A320/M-SDE3FGHIRWY/LB1

Departure

Time 2026-04-30 06:47
Airport Sydney Kingsford Smith International Airport (YSSY)

Arrival

Time 2026-04-30 07:48
Airport Gold Coast Airport (YBCG)
Time Latitude Longitude Altitude Speed Heading
2026-04-30 06:05 -33.93513 151.17686 30 ft 0 kts 101°
2026-04-30 06:05 -33.93513 151.17683 29 ft 0 kts 101°
2026-04-30 06:32 -33.93512 151.17679 30 ft 2 kts 101°
2026-04-30 06:32 -33.93509 151.17658 30 ft 3 kts 101°
2026-04-30 06:32 -33.93505 151.17634 30 ft 3 kts 101°
2026-04-30 06:33 -33.93501 151.17612 30 ft 3 kts 114°
2026-04-30 06:33 -33.93491 151.17593 30 ft 3 kts 143°
2026-04-30 06:33 -33.93476 151.17583 30 ft 2 kts 167°
2026-04-30 06:33 -33.93473 151.17582 30 ft 0 kts 168°
2026-04-30 06:37 -33.93478 151.17583 30 ft 3 kts 168°
2026-04-30 06:37 -33.93517 151.17593 30 ft 7 kts 169°
2026-04-30 06:37 -33.93581 151.17609 30 ft 12 kts 168°
2026-04-30 06:37 -33.93661 151.17644 30 ft 13 kts 152°
2026-04-30 06:38 -33.93753 151.17687 30 ft 15 kts 169°
2026-04-30 06:38 -33.93841 151.17725 30 ft 14 kts 136°
2026-04-30 06:38 -33.93917 151.17782 29 ft 14 kts 167°
2026-04-30 06:38 -33.94026 151.17810 29 ft 17 kts 167°
2026-04-30 06:39 -33.94151 151.17843 30 ft 19 kts 168°
2026-04-30 06:39 -33.94287 151.17878 30 ft 20 kts 168°
2026-04-30 06:39 -33.94401 151.17908 30 ft 15 kts 168°
2026-04-30 06:39 -33.94503 151.17881 30 ft 15 kts 188°
2026-04-30 06:40 -33.94614 151.17902 30 ft 17 kts 170°
2026-04-30 06:40 -33.94740 151.17936 30 ft 20 kts 167°
2026-04-30 06:40 -33.94882 151.17972 30 ft 22 kts 167°
2026-04-30 06:40 -33.95012 151.18007 30 ft 9 kts 167°
2026-04-30 06:41 -33.95077 151.18027 30 ft 11 kts 156°
2026-04-30 06:41 -33.95099 151.18113 30 ft 13 kts 79°
2026-04-30 06:41 -33.95078 151.18227 30 ft 14 kts 78°
2026-04-30 06:41 -33.95059 151.18338 30 ft 11 kts 78°
2026-04-30 06:42 -33.95054 151.18366 30 ft 1 kts 78°
2026-04-30 06:42 -33.95050 151.18386 30 ft 4 kts 77°
2026-04-30 06:42 -33.95042 151.18444 30 ft 9 kts 88°
2026-04-30 06:42 -33.95086 151.18514 30 ft 14 kts 148°
2026-04-30 06:43 -33.95165 151.18596 30 ft 16 kts 137°
2026-04-30 06:43 -33.95260 151.18690 30 ft 19 kts 151°
2026-04-30 06:43 -33.95397 151.18740 30 ft 22 kts 168°
2026-04-30 06:43 -33.95554 151.18781 30 ft 24 kts 167°
2026-04-30 06:44 -33.95728 151.18828 30 ft 27 kts 167°
2026-04-30 06:44 -33.95919 151.18880 30 ft 29 kts 169°
2026-04-30 06:44 -33.96125 151.18928 30 ft 31 kts 168°
2026-04-30 06:44 -33.96334 151.18983 30 ft 31 kts 168°
2026-04-30 06:45 -33.96527 151.19033 30 ft 26 kts 168°
2026-04-30 06:45 -33.96685 151.19073 30 ft 20 kts 169°
2026-04-30 06:45 -33.96830 151.19067 30 ft 22 kts 169°
2026-04-30 06:45 -33.96983 151.19105 30 ft 19 kts 167°
2026-04-30 06:46 -33.97072 151.19129 30 ft 13 kts 167°
2026-04-30 06:46 -33.97128 151.19205 30 ft 15 kts 82°
2026-04-30 06:46 -33.97100 151.19338 28 ft 14 kts 71°
2026-04-30 06:46 -33.97005 151.19358 25 ft 19 kts 347°
2026-04-30 06:47 -33.96708 151.19282 23 ft 78 kts 348°
2026-04-30 06:47 -33.95980 151.19092 28 ft 133 kts 348°
2026-04-30 06:47 -33.94973 151.18836 330 ft 150 kts 354°
2026-04-30 06:47 -33.93960 151.18700 989 ft 145 kts 11°
2026-04-30 06:48 -33.93006 151.19063 1489 ft 147 kts 33°
2026-04-30 06:48 -33.92161 151.19801 1919 ft 157 kts 37°
2026-04-30 06:48 -33.91222 151.20622 2262 ft 176 kts 37°
2026-04-30 06:48 -33.90177 151.21545 2622 ft 199 kts 37°
2026-04-30 06:49 -33.89007 151.22582 3018 ft 224 kts 37°
2026-04-30 06:49 -33.87680 151.23739 3547 ft 245 kts 36°
2026-04-30 06:49 -33.86271 151.24959 4390 ft 253 kts 37°
2026-04-30 06:49 -33.84829 151.26213 5308 ft 259 kts 38°
2026-04-30 06:50 -33.83580 151.27781 6177 ft 263 kts 58°
2026-04-30 06:50 -33.82871 151.29825 7025 ft 269 kts 73°
2026-04-30 06:50 -33.82323 151.31994 7877 ft 272 kts 73°
2026-04-30 06:50 -33.81767 151.34185 8755 ft 276 kts 72°
2026-04-30 06:51 -33.81002 151.36309 9583 ft 279 kts 59°
2026-04-30 06:51 -33.79841 151.38199 10403 ft 283 kts 51°
2026-04-30 06:51 -33.78565 151.40092 10795 ft 303 kts 50°
2026-04-30 06:51 -33.77188 151.42131 11011 ft 325 kts 51°
2026-04-30 06:52 -33.75734 151.44285 11510 ft 336 kts 50°
2026-04-30 06:52 -33.74250 151.46487 12165 ft 341 kts 50°
2026-04-30 06:52 -33.72745 151.48721 12859 ft 345 kts 50°
2026-04-30 06:52 -33.71226 151.50973 13571 ft 349 kts 50°
2026-04-30 06:53 -33.69688 151.53251 14254 ft 353 kts 50°
2026-04-30 06:53 -33.68133 151.55554 14866 ft 356 kts 50°
2026-04-30 06:53 -33.66583 151.57847 15450 ft 360 kts 51°
2026-04-30 06:53 -33.64917 151.60111 16025 ft 364 kts 43°
2026-04-30 06:54 -33.62918 151.61995 16606 ft 368 kts 33°
2026-04-30 06:54 -33.60760 151.63682 17182 ft 372 kts 34°
2026-04-30 06:54 -33.58577 151.65389 17744 ft 377 kts 34°
2026-04-30 06:54 -33.56374 151.67118 18328 ft 381 kts 34°
2026-04-30 06:55 -33.54144 151.68870 18896 ft 385 kts 34°
2026-04-30 06:55 -33.51891 151.70636 19429 ft 389 kts 34°
2026-04-30 06:55 -33.49534 151.72265 19958 ft 394 kts 26°
2026-04-30 06:55 -33.46938 151.73386 20501 ft 400 kts 17°
2026-04-30 06:56 -33.44236 151.74257 21047 ft 404 kts 16°
2026-04-30 06:56 -33.41512 151.75131 21567 ft 407 kts 16°
2026-04-30 06:56 -33.38755 151.76018 22080 ft 411 kts 16°
2026-04-30 06:56 -33.35976 151.76916 22584 ft 415 kts 16°
2026-04-30 06:57 -33.33179 151.77818 23088 ft 419 kts 16°
2026-04-30 06:57 -33.30353 151.78728 23564 ft 423 kts 16°
2026-04-30 06:57 -33.27501 151.79647 24024 ft 426 kts 16°
2026-04-30 06:57 -33.24626 151.80576 24421 ft 429 kts 16°
2026-04-30 06:58 -33.21730 151.81510 24824 ft 432 kts 16°
2026-04-30 06:58 -33.18814 151.82451 25220 ft 435 kts 16°
2026-04-30 06:58 -33.15885 151.83396 25610 ft 437 kts 16°
2026-04-30 06:58 -33.12939 151.84348 26000 ft 440 kts 16°
2026-04-30 06:59 -33.10012 151.85290 26382 ft 442 kts 15°
2026-04-30 06:59 -33.07034 151.86247 26757 ft 445 kts 15°
2026-04-30 06:59 -33.04038 151.87206 27123 ft 447 kts 15°
2026-04-30 06:59 -33.01030 151.88167 27512 ft 449 kts 15°
2026-04-30 07:00 -32.98004 151.89133 27875 ft 451 kts 15°
2026-04-30 07:00 -32.94965 151.90106 28239 ft 454 kts 15°
2026-04-30 07:00 -32.91903 151.91088 28605 ft 456 kts 15°
2026-04-30 07:00 -32.88833 151.92076 28956 ft 459 kts 15°
2026-04-30 07:01 -32.85741 151.93070 29298 ft 461 kts 15°
2026-04-30 07:01 -32.82634 151.94064 29652 ft 463 kts 15°
2026-04-30 07:01 -32.79514 151.95057 30008 ft 465 kts 15°
2026-04-30 07:01 -32.76376 151.96055 30344 ft 468 kts 15°
2026-04-30 07:02 -32.73222 151.97060 30658 ft 469 kts 15°
2026-04-30 07:02 -32.70070 151.98064 31061 ft 468 kts 14°
2026-04-30 07:02 -32.66927 151.99063 31470 ft 467 kts 14°
2026-04-30 07:02 -32.63791 152.00060 31897 ft 466 kts 14°
2026-04-30 07:03 -32.60663 152.01053 32328 ft 465 kts 14°
2026-04-30 07:03 -32.57539 152.02044 32753 ft 464 kts 14°
2026-04-30 07:03 -32.54424 152.03036 33183 ft 462 kts 14°
2026-04-30 07:03 -32.51320 152.04025 33612 ft 461 kts 14°
2026-04-30 07:04 -32.48260 152.04998 34051 ft 460 kts 14°
2026-04-30 07:04 -32.45173 152.05978 34484 ft 459 kts 13°
2026-04-30 07:04 -32.42093 152.06957 34859 ft 457 kts 13°
2026-04-30 07:04 -32.39020 152.07932 35190 ft 457 kts 13°
2026-04-30 07:05 -32.32847 152.09875 35413 ft 461 kts 13°
2026-04-30 07:05 -32.26634 152.11820 35412 ft 462 kts 13°
2026-04-30 07:06 -32.20421 152.13778 35410 ft 462 kts 13°
2026-04-30 07:06 -32.14247 152.15735 35410 ft 462 kts 13°
2026-04-30 07:07 -32.08039 152.17688 35415 ft 461 kts 13°
2026-04-30 07:07 -32.01834 152.19632 35414 ft 462 kts 13°
2026-04-30 07:08 -31.95622 152.21576 35414 ft 462 kts 12°
2026-04-30 07:08 -31.89408 152.23516 35416 ft 462 kts 12°
2026-04-30 07:09 -31.83193 152.25453 35419 ft 462 kts 12°
2026-04-30 07:09 -31.76977 152.27395 35415 ft 462 kts 12°
2026-04-30 07:10 -31.70759 152.29346 35421 ft 462 kts 12°
2026-04-30 07:10 -31.64539 152.31279 35424 ft 462 kts 12°
2026-04-30 07:11 -31.58312 152.33197 35424 ft 462 kts 12°
2026-04-30 07:11 -31.52097 152.35125 35420 ft 462 kts 12°
2026-04-30 07:12 -31.45886 152.37049 35423 ft 462 kts 12°
2026-04-30 07:12 -31.39713 152.38961 35423 ft 462 kts 12°
2026-04-30 07:13 -31.33497 152.40878 35422 ft 462 kts 12°
2026-04-30 07:13 -31.27283 152.42805 35418 ft 462 kts 12°
2026-04-30 07:14 -31.21074 152.44722 35422 ft 461 kts 12°
2026-04-30 07:14 -31.14863 152.46625 35417 ft 461 kts 12°
2026-04-30 07:15 -31.08654 152.48531 35411 ft 461 kts 12°
2026-04-30 07:15 -31.02447 152.50439 35412 ft 461 kts 12°
2026-04-30 07:16 -30.96232 152.52353 35409 ft 461 kts 12°
2026-04-30 07:16 -30.90022 152.54258 35409 ft 461 kts 12°
2026-04-30 07:17 -30.83813 152.56151 35401 ft 461 kts 12°
2026-04-30 07:18 -30.75699 152.59297 35405 ft 464 kts 19°
2026-04-30 07:18 -30.69710 152.62086 35409 ft 464 kts 19°
2026-04-30 07:19 -30.63717 152.64865 35405 ft 464 kts 19°
2026-04-30 07:19 -30.57720 152.67632 35398 ft 464 kts 19°
2026-04-30 07:20 -30.51721 152.70396 35409 ft 464 kts 19°
2026-04-30 07:20 -30.45718 152.73167 35410 ft 464 kts 19°
2026-04-30 07:21 -30.39711 152.75932 35412 ft 464 kts 19°
2026-04-30 07:21 -30.33708 152.78696 35408 ft 464 kts 19°
2026-04-30 07:22 -30.24703 152.82847 35400 ft 464 kts 19°
2026-04-30 07:22 -30.18740 152.85585 35405 ft 464 kts 19°
2026-04-30 07:23 -30.12740 152.88327 35395 ft 464 kts 18°
2026-04-30 07:23 -30.06727 152.91076 35390 ft 464 kts 19°
2026-04-30 07:24 -30.00713 152.93826 35394 ft 465 kts 19°
2026-04-30 07:24 -29.94700 152.96573 35395 ft 465 kts 18°
2026-04-30 07:25 -29.88675 152.99316 35381 ft 465 kts 18°
2026-04-30 07:25 -29.82653 153.02058 35387 ft 465 kts 18°
2026-04-30 07:26 -29.76627 153.04792 35382 ft 466 kts 18°
2026-04-30 07:26 -29.70598 153.07520 35373 ft 466 kts 18°
2026-04-30 07:27 -29.64565 153.10260 35372 ft 466 kts 18°
2026-04-30 07:27 -29.61548 153.11631 34999 ft 467 kts 18°
2026-04-30 07:27 -29.58495 153.13015 33892 ft 476 kts 19°
2026-04-30 07:28 -29.55404 153.14416 32976 ft 477 kts 19°
2026-04-30 07:28 -29.52318 153.15814 32054 ft 478 kts 19°
2026-04-30 07:28 -29.49244 153.17203 31540 ft 470 kts 19°
2026-04-30 07:28 -29.46211 153.18571 30917 ft 466 kts 20°
2026-04-30 07:29 -29.43206 153.19926 30296 ft 462 kts 20°
2026-04-30 07:29 -29.40227 153.21266 29659 ft 457 kts 20°
2026-04-30 07:29 -29.37283 153.22588 29068 ft 452 kts 20°
2026-04-30 07:29 -29.34370 153.23892 28475 ft 447 kts 20°
2026-04-30 07:30 -29.28677 153.26448 27320 ft 438 kts 20°
2026-04-30 07:30 -29.25849 153.27721 26749 ft 434 kts 21°
2026-04-30 07:30 -29.23049 153.28982 26193 ft 431 kts 20°
2026-04-30 07:31 -29.20272 153.30234 25640 ft 427 kts 21°
2026-04-30 07:31 -29.17516 153.31473 25109 ft 424 kts 21°
2026-04-30 07:31 -29.14772 153.32704 24584 ft 422 kts 21°
2026-04-30 07:31 -29.12050 153.33923 24084 ft 419 kts 21°
2026-04-30 07:32 -29.09344 153.35136 23525 ft 417 kts 21°
2026-04-30 07:32 -29.06658 153.36342 23043 ft 412 kts 22°
2026-04-30 07:32 -29.04001 153.37534 22548 ft 409 kts 22°
2026-04-30 07:32 -29.01355 153.38715 22058 ft 406 kts 22°
2026-04-30 07:33 -28.98729 153.39883 21565 ft 403 kts 22°
2026-04-30 07:33 -28.96133 153.41038 21066 ft 397 kts 22°
2026-04-30 07:33 -28.93584 153.42174 20560 ft 390 kts 22°
2026-04-30 07:33 -28.91075 153.43294 20063 ft 384 kts 22°
2026-04-30 07:34 -28.88602 153.44400 19551 ft 381 kts 23°
2026-04-30 07:34 -28.86134 153.45500 19045 ft 380 kts 23°
2026-04-30 07:34 -28.83670 153.46595 18504 ft 379 kts 23°
2026-04-30 07:34 -28.81217 153.47684 17950 ft 377 kts 23°
2026-04-30 07:35 -28.78784 153.48766 17429 ft 374 kts 23°
2026-04-30 07:35 -28.76370 153.49840 16913 ft 371 kts 23°
2026-04-30 07:35 -28.73969 153.50908 16392 ft 369 kts 23°
2026-04-30 07:35 -28.71586 153.51967 15877 ft 366 kts 23°
2026-04-30 07:36 -28.69220 153.53019 15366 ft 364 kts 24°
2026-04-30 07:36 -28.66862 153.54062 14852 ft 362 kts 23°
2026-04-30 07:36 -28.64518 153.55100 14340 ft 360 kts 23°
2026-04-30 07:36 -28.62188 153.56132 13797 ft 358 kts 24°
2026-04-30 07:37 -28.59873 153.57160 13281 ft 355 kts 24°
2026-04-30 07:37 -28.57585 153.58175 12778 ft 352 kts 24°
2026-04-30 07:37 -28.55314 153.59182 12279 ft 349 kts 24°
2026-04-30 07:37 -28.53061 153.60180 11784 ft 346 kts 24°
2026-04-30 07:38 -28.50812 153.61136 11287 ft 344 kts 22°
2026-04-30 07:38 -28.48537 153.62023 10577 ft 349 kts 21°
2026-04-30 07:38 -28.46260 153.62863 10274 ft 337 kts 21°
2026-04-30 07:38 -28.44073 153.63653 10188 ft 323 kts 21°
2026-04-30 07:39 -28.41998 153.64406 10089 ft 310 kts 21°
2026-04-30 07:39 -28.39980 153.65149 9896 ft 301 kts 21°
2026-04-30 07:39 -28.37979 153.65892 9297 ft 300 kts 21°
2026-04-30 07:39 -28.36017 153.66609 8774 ft 292 kts 21°
2026-04-30 07:40 -28.34104 153.67302 8295 ft 285 kts 21°
2026-04-30 07:40 -28.32232 153.67974 7819 ft 279 kts 21°
2026-04-30 07:40 -28.30390 153.68594 7353 ft 275 kts 15°
2026-04-30 07:40 -28.28486 153.68761 6888 ft 275 kts 359°
2026-04-30 07:41 -28.26611 153.68357 6405 ft 275 kts 343°
2026-04-30 07:41 -28.24878 153.67468 5926 ft 272 kts 335°
2026-04-30 07:41 -28.23200 153.66527 5475 ft 266 kts 336°
2026-04-30 07:41 -28.21552 153.65614 5070 ft 260 kts 336°
2026-04-30 07:42 -28.19977 153.64744 4994 ft 243 kts 336°
2026-04-30 07:42 -28.18499 153.63925 4933 ft 230 kts 337°
2026-04-30 07:42 -28.17082 153.63142 4855 ft 225 kts 337°
2026-04-30 07:42 -28.15683 153.62368 4761 ft 223 kts 334°
2026-04-30 07:43 -28.14396 153.61357 4555 ft 228 kts 323°
2026-04-30 07:43 -28.13155 153.60225 4247 ft 228 kts 322°
2026-04-30 07:43 -28.11926 153.59100 3923 ft 227 kts 322°
2026-04-30 07:43 -28.10706 153.57985 3603 ft 223 kts 322°
2026-04-30 07:44 -28.09531 153.56909 3312 ft 212 kts 322°
2026-04-30 07:44 -28.08484 153.55786 3030 ft 202 kts 309°
2026-04-30 07:44 -28.07749 153.54498 2778 ft 189 kts 294°
2026-04-30 07:44 -28.07315 153.53141 2529 ft 178 kts 279°
2026-04-30 07:45 -28.07155 153.51803 2331 ft 165 kts 266°
2026-04-30 07:45 -28.07226 153.50538 2099 ft 157 kts 252°
2026-04-30 07:45 -28.07513 153.49386 1897 ft 148 kts 236°
2026-04-30 07:45 -28.08066 153.48452 1703 ft 139 kts 218°
2026-04-30 07:46 -28.08791 153.47790 1526 ft 134 kts 200°
2026-04-30 07:46 -28.09624 153.47395 1358 ft 127 kts 186°
2026-04-30 07:46 -28.10490 153.47280 1201 ft 126 kts 173°
2026-04-30 07:46 -28.11355 153.47433 1033 ft 127 kts 161°
2026-04-30 07:47 -28.12166 153.47844 856 ft 129 kts 148°
2026-04-30 07:47 -28.12945 153.48359 687 ft 130 kts 151°
2026-04-30 07:47 -28.13736 153.48874 468 ft 132 kts 152°
2026-04-30 07:47 -28.14535 153.49365 325 ft 130 kts 151°
2026-04-30 07:48 -28.15319 153.49869 164 ft 129 kts 154°
2026-04-30 07:48 -28.16108 153.50364 28 ft 121 kts 152°
2026-04-30 07:48 -28.16646 153.50704 28 ft 46 kts 151°
2026-04-30 07:48 -28.16816 153.50812 28 ft 28 kts 150°
2026-04-30 07:49 -28.16945 153.50918 28 ft 18 kts 104°
2026-04-30 07:49 -28.16919 153.51010 26 ft 9 kts 61°
2026-04-30 07:49 -28.16864 153.51057 26 ft 12 kts 349°
2026-04-30 07:49 -28.16785 153.51009 30 ft 14 kts 329°
2026-04-30 07:50 -28.16690 153.50948 27 ft 17 kts 331°
2026-04-30 07:50 -28.16580 153.50877 29 ft 17 kts 330°
2026-04-30 07:50 -28.16495 153.50869 27 ft 13 kts 51°
2026-04-30 07:50 -28.16531 153.50952 27 ft 15 kts 152°
2026-04-30 07:51 -28.16609 153.51000 27 ft 12 kts 151°
2026-04-30 07:51 -28.16667 153.51037 29 ft 7 kts 149°
2026-04-30 07:51 -28.16693 153.51083 27 ft 9 kts 85°
2026-04-30 07:51 -28.16665 153.51135 27 ft 5 kts 60°
2026-04-30 07:52 -28.16653 153.51159 27 ft 2 kts 61°
2026-04-30 07:52 -28.16650 153.51165 26 ft 0 kts 61°